Weather in Shcherbatovka

Russia / Ryazan Oblast     54°48′37″N   41°45′10″E
temp.,
°C
wind,
m/s
gust,
m/s
humid.,
%
clouds,
%
prec.,
mm/h
press.,
hPa
HPBL,
m
25 february, thu
thu2500:00−17s4895100 0.3 1032336
03:00−16ssw5995100 0.5 1029407
06:00−14s51095100 1.6 1025422
09:00−12ssw71195100 3.3 1021429
12:00−8ssw61195100 3.1 1017498
15:00−1ssw4997100 5.4 1013289
18:00+1w410100100 0.4 1012256
21:00+2wnw51099100 0.5 1013257
26 february, fri
fri2600:00+1wnw5998100 0.0 1012281
03:00+1w4896100 0.0 1013262
06:00+1wsw38100100 0.3 1011210
09:00+1wsw58100100 0.8 1010201
12:00+2wsw612100100 0.5 1007364
15:00+3wsw614100100 0.9 1005362
18:00+2wsw715100100 0.9 1002402
21:00+2w7169391 1.7 1002594
27 february, sat
sat2700:00+1w71590100 0.1 1001774
03:00+1w7149096 0.1 1001858
06:000w71492100 0.1 999682
09:000w7139185 0.1 1000854
12:000w71396100 0.1 999699
15:00−3nnw81197100 0.8 1001541
18:00−7nnw61091100 0.3 1003699
21:00−8nnw4991100 0.4 1007542
28 february, sun
sun2800:00−11nnw489497 0.0 1009233
03:00−12nnw379588 0.1 1011170
06:00−14nnw379554 0.0 1013143
09:00−12nnw479233 0.0 1014387
12:00−9nnw478887 0.0 1016531
15:00−7nnw578993 0.1 1016670
18:00−8nnw4893100 0.1 1018409
21:00−10n3696100 0.1 1020152
1 march, mon
mon100:00−12nnw349694 0.0 102263
03:00−13nnw349669 0.1 102460
06:00−14nnw339522 0.0 102549
09:00−11nnw249532 0.0 1026155
12:00−7nw249089 0.0 1027390
15:00−4wnw358795 0.1 1026615
18:00−4w3791100 0.0 1025273
21:00−6wsw4109499 0.1 1024234